Regional Weather Roundup
Issued by NWS Newport/Morehead, NC

Current Version | Previous Version | Graphics & Text | Print | Product List | Glossary On
Versions: 1 2 3 4 5 6 7 8 9 10 11 12 13 14 15 16 17 18 19 20 21 22 23 24 25 26 27 28 29 30 31 32 33 34 35 36 37 38 39 40 41 42 43 44 45 46 47 48 49 50
000 ASUS42 KMHX 261924 RWRMHX WEATHER ROUNDUP FOR EASTERN NORTH CAROLINA NATIONAL WEATHER SERVICE NEWPORT/MOREHEAD CITY NC 300 PM EDT THU MAR 26 2015 NOTE: "FAIR" INDICATES FEW OR NO CLOUDS BELOW 12,000 FEET WITH NO SIGNIFICANT WEATHER AND/OR OBSTRUCTIONS TO VISIBILITY NCZ015>017-031-032-045>047-102-103-262000- NORTH COAST CITY SKY/WX TMP DP RH WIND PRES REMARKS EDENTON CLOUDY 69 62 77 S22G28 29.79F ELIZABETH CITY CLOUDY 72 63 73 S15G31 29.80F KITTY HAWK MOCLDY 69 62 78 S17G28 29.82F MANTEO PTSUNNY 65 60 84 S30G37 29.83F $$ NCZ045>047-081-094-103-104-262000- CENTRAL COAST CITY SKY/WX TMP DP RH WIND PRES REMARKS FRISCO CLOUDY 69 61 75 S26G41 29.88F SWANQUARTER N/A 68 N/A N/A S28 29.79F $$ NCZ095-097-098-100-101-262000- SOUTHERN COAST CITY SKY/WX TMP DP RH WIND PRES REMARKS BEAUFORT SUNNY 68 61 78 S20G28 29.88F CEDAR ISLAND N/A 73 N/A N/A S9G32 29.88F JACKSONVILLE PTSUNNY 78 54 43 SW14G24 29.85F PINEY ISLAND PTCLDY N/A N/A N/A S24G35 29.86F WILMINGTON PTSUNNY 75 53 46 SW18G30 29.88F $$ NCZ011>013-027>030-043-044-078>080-089-090>093-098-262000- COASTAL PLAIN CITY SKY/WX TMP DP RH WIND PRES REMARKS AHOSKIE CLOUDY 67 61 80 S5 29.79F CLINTON MOSUNNY 75 58 56 SW15 29.85F ELIZABETHTOWN CLOUDY 73 58 57 SW8 29.87F GOLDSBORO PTSUNNY 73 71 94 SW18G26 29.81F GREENVILLE PTSUNNY 70 64 83 SW8 29.84F HAVELOCK PTSUNNY 73 60 63 S17G26 29.87F KENANSVILLE PTSUNNY 73 57 56 W7 29.85S KINSTON PTSUNNY 72 63 73 SW10 29.84F NEW BERN PTSUNNY 77 55 46 SW15 29.84F RICHLANDS CLOUDY 75 55 50 SW18G25 29.86R ROCKY MOUNT PTSUNNY 72 62 71 SW13G21 29.81F WASHINGTON PTSUNNY 68 65 90 SW13 29.83S WHITEVILLE CLOUDY 74 57 56 W5 29.88S $$ AMZ130-135-150-152-154-156-158-170-250-252-270-ANZ085-086-088-633-658-670-262000- MARINE OBSERVATIONS STATION/POSITION TIME TEMP WIND PRES WAVE SWELL AIR SEA DIR/SP/G HT/PER HT/PER (UTC) (F) (DEG/KT/KT) (MB) (FT/S) (FT/S) CHESAPEAKE LIGHT 1800 54 210/ 21/ 25 1011.1 64 E VA BEACH 1850 61 54 180/ 19/ 21 1010.8 7/ 8 3/14 DUCK 1900 68 43 180/ 23/ 28 1008.6 2 E DUCK 1811 44 N/A 5/ 7 10 NE DUCK NOT AVBL OREGON INLET 1900 65 56 170/ 23/ 30 1010.3 HATTERAS CG 1900 69 57 170/ 21/ 30 1011.9 CAPE LOOKOUT 1900 65 180/ 16/ 17 1011.5 BEAUFORT LAB 1900 62 56 190/ 14/ 17 1010.7 27 SE WRIGHTSVLE 1900 63 65 220/ 16/ 17 1014.8 5 SE WRIGHTSVLE 1900 61 56 190/ 16/ 17 1012.3 225 S CAPE HAT 1850 70 69 170/ 21/ 27 1017.0 7/ 6 41 SE CHARLESTON 1850 68 71 250/ 12/ 16 1013.6 5/ 8 5/ 8 $$

USA.gov is the U.S. government's official web portal to all federal, state and local government web resources and services.